Air Resources Laboratory banner image
Air Resources Laboratory web site National Oceanic and Atmospheric Administration (NOAA)

ny roundup


Office: ALY

ASUS41 KALY 140110
RWRALY

NEW YORK STATE HOURLY WEATHER ROUNDUP
NATIONAL WEATHER SERVICE ALBANY NY
900 PM EDT SAT AUG 13 2022

NOTE: "FAIR" INDICATES FEW OR NO CLOUDS BELOW 12,000 FEET WITH NO
SIGNIFICANT WEATHER AND/OR NO OBSTRUCTIONS TO VISIBILITY.

NYZ032-033-038>043-046>054-057>066-NYZ062>081-082-084-140200-
EAST


CITY           SKY/WX    TMP DP  RH WIND       PRES   REMARKS
ALBANY         MOCLDY    68  53  58 CALM      30.08R
GLENS FALLS    CLEAR     56  52  86 CALM      30.08R
POUGHKEEPSIE   CLOUDY    68  51  54 CALM      30.06R
NEWBURGH       PTCLDY    70  48  46 VRB6      30.07R
MONTGOMERY     MOCLDY    64  52  64 CALM      30.07R
WHITE PLAINS   PTCLDY    66  56  70 CALM      30.08R
ISLIP          PTCLDY    69  49  48 CALM      30.07R
NEW YORK CITY  PTCLDY    76  47  35 E7        30.06R
CENTRAL PARK   CLEAR     73  48  41 NE3       30.10R
$$

NYZ005>009-017-018-044>046-055-056-140200-
CENTRAL


CITY           SKY/WX    TMP DP  RH WIND       PRES   REMARKS
FULTON         CLEAR     59  54  83 CALM      30.09S
SYRACUSE       PTCLDY    65  49  56 CALM      30.09S
ROME           CLEAR     64  53  67 CALM      30.10R
ELMIRA         CLEAR     64  49  57 E6        30.08R
BINGHAMTON     CLEAR     64  46  52 NE5       30.11S
MONTICELLO     CLEAR     65  47  52 VRB5      30.12R
$$

NYZ026>034-041>043-087-140200-
NORTH


CITY           SKY/WX    TMP DP  RH WIND       PRES   REMARKS
WATERTOWN      CLEAR     60  53  77 CALM      30.08S
FORT DRUM      NOT AVBL
OGDENSBURG     FAIR      59  55  88 CALM      30.06S
MASSENA        CLEAR     59  55  87 CALM      30.09S
SARANAC LAKE   CLEAR     53  51  93 CALM      30.12R
PLATTSBURGH    CLEAR     60  52  74 CALM      30.08R
$$

NYZ001>004-010>016-019>021-085-140200-
WEST


CITY           SKY/WX    TMP DP  RH WIND       PRES   REMARKS
NIAGARA FALLS  PTCLDY    69  50  50 S5        30.08S
BUFFALO        PTCLDY    71  51  49 E5        30.09S
DUNKIRK        MOCLDY    65  56  72 S3        30.09F
JAMESTOWN      MOCLDY    64  46  52 N5        30.14S
WELLSVILLE     MOCLDY    68  46  45 N3        30.14R
ROCHESTER      PTCLDY    69  47  45 E5        30.10S
PENN YAN       CLEAR     66  49  54 CALM      30.11R
$$

             KEY
       WCI = WIND CHILL INDEX
       VSB = VISIBILITY
       HX  = HEAT INDEX
$$




Office: OKX ASUS41 KOKX 140105 RWROKX Regional Weather Roundup National Weather Service New York NY 900 PM EDT SAT AUG 13 2022 Note: "FAIR" indicates few or no clouds below 12,000 feet with no significant weather and/or obstructions to visibility. NYZ071-072-176-178-NJZ106-104-140200- New York City Metro Area CITY SKY/WX TMP DP RH WIND PRES REMARKS Central Park CLEAR 73 48 41 NE3 30.10R World Trd Ctr NOT AVBL Bronx Lehman C N/A 73 50 43 SE3 N/A LaGuardia Arpt PTCLDY 76 47 35 E7 30.06R Queens College N/A 73 48 40 SE3 N/A Kennedy Intl PTCLDY 72 55 55 S8 30.08R Breezy Point N/A 70 N/A N/A S8 N/A Brooklyn Coll N/A 73 55 53 S6 N/A Staten Island N/A 72 54 53 SE3 N/A Newark/Liberty PTCLDY 75 51 43 S7 30.06R Teterboro PTCLDY 73 50 44 SE3 30.06R $$ NYZ177-179-078>081-140200- Long Island New York CITY SKY/WX TMP DP RH WIND PRES REMARKS Jones Beach N/A 70 N/A N/A S5 N/A Wantagh N/A 72 57 60 S6 N/A Hempstead NOT AVBL Matinecock Pt N/A 72 N/A N/A SE3 N/A Farmingdale CLEAR 71 55 56 S7 30.08R MacArthur/ISP PTCLDY 69 49 48 CALM 30.07R Stony Brook N/A 68 52 56 CALM N/A Shirley MOCLDY 66 51 58 CALM 30.08R Mt Sinai Harb N/A 70 N/A N/A S2 N/A Westhampton NOT AVBL East Hampton CLOUDY 63 52 69 CALM 30.06R Southold N/A 64 55 72 CALM N/A Montauk N/A 65 56 72 CALM 30.07R $$ NYZ052-065-067-140200- Hudson Valley CITY SKY/WX TMP DP RH WIND PRES REMARKS White Plains NOT AVBL Larchmont Harb N/A 73 N/A N/A SE6 N/A Croton On Huds N/A 72 N/A N/A E3 N/A Somers N/A 66 50 55 NW1 N/A Brewster N/A 63 54 72 N1 N/A Newburgh PTCLDY 70 48 46 VRB6 30.07R Montgomery MOCLDY 64 52 64 CALM 30.07R Otisville N/A 64 54 68 CALM N/A Warwick N/A 64 54 68 SE1 N/A Suffern N/A 66 50 55 CALM N/A Poughkeepsie CLOUDY 68 51 54 CALM 30.06R Albany MOCLDY 68 53 58 CALM 30.08R $$ NJZ001-105-106-008-010-013-015-019>022-104-140200- New Jersey CITY SKY/WX TMP DP RH WIND PRES REMARKS Newark/Liberty PTCLDY 75 51 43 S7 30.06R Teterboro PTCLDY 73 50 44 SE3 30.06R Caldwell MOCLDY 72 47 40 SE3 30.07R Somerville CLEAR 66 52 60 S3 30.05R Linden FAIR 75 47 37 S3 30.07R Perth Amboy N/A 73 N/A N/A S8 N/A Sussex MOCLDY 66 53 63 CALM 30.08R Andover N/A 66 53 63 CALM 30.08R Trenton CLEAR 71 53 52 S12 30.07R Millville CLEAR 67 56 67 SE5 30.09R Atlantic City CLEAR 66 56 70 SE5 30.09R Wrightstown CLEAR 68 53 58 S7 30.08R Toms River NOT AVBL Belmar CLEAR 68 56 65 S5 30.10R $$ PAZ047>061-062-071-140200- Eastern Pennsylvania CITY SKY/WX TMP DP RH WIND PRES REMARKS Philadelphia PTCLDY 73 55 53 SE10 30.07R Allentown PTCLDY 70 45 40 CALM 30.06S Scranton CLEAR 68 48 48 E5 30.08R $$ CTZ002-004>006-009-010-012-RIZ004-006-007-MAZ004-011-015-140200- Southern New England In CT CITY SKY/WX TMP DP RH WIND PRES REMARKS Bradley Intl PTCLDY 66 54 65 NW5 30.07R Hartford PTCLDY 73 51 46 N5 30.06R Danbury MOCLDY 65 52 62 CALM 30.10R Wtrbury/Oxford CLEAR 63 51 65 CALM 30.10R Norwalk Harbor NOT AVBL Bridgeport MOCLDY 73 54 51 CALM 30.07R Meriden PTCLDY 65 53 65 CALM 30.07R New Haven CLOUDY 73 55 53 CALM 30.08R Chester FAIR 64 52 63 CALM 30.08R Groton CLEAR 67 54 63 NW3 30.06R Willimantic CLOUDY 65 56 72 CALM 30.07R In RI CITY SKY/WX TMP DP RH WIND PRES REMARKS Providence PTCLDY 68 57 68 CALM 30.07R Block Island MOCLDY 68 57 68 SW3 30.07R Westerly PTCLDY 66 58 75 CALM 30.06R In MA CITY SKY/WX TMP DP RH WIND PRES REMARKS Boston PTCLDY 65 56 72 S3 30.06S Worcester MOCLDY 67 51 56 NW6 30.09R Westfield PTCLDY 64 53 67 CALM 30.07R Provincetown NOT AVBL Nantucket CLEAR 65 62 90 CALM 30.05R $$ ANZ330-335-338-340-345-350-353-355-140200- Coastal Marine Observations STATION/POSITION TIME SKY/WX TEMP WIND PRES VSBY WAVE AIR SEA DIR/SP/G HT/PER (UTC) (F) (DEG/KT/KT) (MB) (MI) (FT/S) NY Harb Entrance 0050 73 170/ 8/ 10 1017.4 2/ 5 20 S Fire Island 0040 74 1017.7 Great South Bay 0030 73 220/ 8/ 12 N/A 23 SSW Montauk P 0040 72 270/ 10/ 14 1017.9 15 E Barnegat Li 0026 76 N/A 3/ 5 Hudson Canyon 0050 72 79 310/ 4/ 6 1018.1 3/ 5 Kings Point 0030 73 74 120/ 3/ 5 1018.2 Execution Rocks 0045 73 160/ 6/ 14 N/A Western LI Sound 0030 76 150/ 4/ 6 N/A Central LI Sound NOT AVBL Robbins Reef 0030 74 170/ 7/ 10 1017.8 $$ >>>>>>>>>>>>>>>>>>>>>>>>>>>> KEY <<<<<<<<<<<<<<<<<<<<<<<<<<< > < > SKY/WX - Sky Condition/Present Weather < > TMP - Temperature in Fahrenheit < > DP - Dew Point in Fahrenheit < > RH - Relative Humidity in Percent < > WIND - Direction (from) and Speed in MPH < > PRES - Mean Sea Level Pressure (inches of Hg) < > WCI - Wind Chill Index < > VSB - Visibility in Miles < > HX - Heat Index < > TC - Temperature in Celsius < > VRB - Variable Wind Direction < > < >>>>>>>>>>>>>>>>>>>>>>>>>>>> KEY <<<<<<<<<<<<<<<<<<<<<<<<<<< ASUS41 KOKX 140113 RWROKX Regional Weather Roundup National Weather Service New York NY 900 PM EDT SAT AUG 13 2022 Note: "FAIR" indicates few or no clouds below 12,000 feet with no significant weather and/or obstructions to visibility. NYZ071-072-176-178-NJZ106-104-140200- New York City Metro Area CITY SKY/WX TMP DP RH WIND PRES REMARKS Central Park CLEAR 73 48 41 NE3 30.10R World Trd Ctr NOT AVBL Bronx Lehman C NOT AVBL LaGuardia Arpt PTCLDY 76 47 35 E7 30.06R Queens College NOT AVBL Kennedy Intl PTCLDY 72 55 55 S8 30.08R Breezy Point NOT AVBL Brooklyn Coll NOT AVBL Staten Island NOT AVBL Newark/Liberty PTCLDY 75 51 43 S7 30.06R Teterboro PTCLDY 73 50 44 SE3 30.06R $$ NYZ177-179-078>081-140200- Long Island New York CITY SKY/WX TMP DP RH WIND PRES REMARKS Jones Beach NOT AVBL Wantagh NOT AVBL Hempstead NOT AVBL Matinecock Pt NOT AVBL Farmingdale CLEAR 71 55 56 S7 30.08R MacArthur/ISP PTCLDY 69 49 48 CALM 30.07R Stony Brook NOT AVBL Shirley MOCLDY 66 51 58 CALM 30.08R Mt Sinai Harb NOT AVBL Westhampton NOT AVBL East Hampton CLOUDY 63 52 69 CALM 30.06R Southold NOT AVBL Montauk N/A 65 56 72 CALM 30.07R $$ NYZ052-065-067-140200- Hudson Valley CITY SKY/WX TMP DP RH WIND PRES REMARKS White Plains PTCLDY 66 56 70 CALM 30.08R Larchmont Harb NOT AVBL Croton On Huds NOT AVBL Somers NOT AVBL Brewster NOT AVBL Newburgh PTCLDY 70 48 46 VRB6 30.07R Montgomery MOCLDY 64 52 64 CALM 30.07R Otisville NOT AVBL Warwick NOT AVBL Suffern NOT AVBL Poughkeepsie CLOUDY 68 51 54 CALM 30.06R Albany MOCLDY 68 53 58 CALM 30.08R $$ NJZ001-105-106-008-010-013-015-019>022-104-140200- New Jersey CITY SKY/WX TMP DP RH WIND PRES REMARKS Newark/Liberty PTCLDY 75 51 43 S7 30.06R Teterboro PTCLDY 73 50 44 SE3 30.06R Caldwell MOCLDY 72 47 40 SE3 30.07R Somerville CLEAR 66 52 60 S3 30.05R Linden FAIR 75 47 37 S3 30.07R Perth Amboy NOT AVBL Sussex MOCLDY 66 53 63 CALM 30.08R Andover N/A 66 53 63 CALM 30.08R Trenton CLEAR 71 53 52 S12 30.07R Millville CLEAR 67 56 67 SE5 30.09R Atlantic City CLEAR 66 56 70 SE5 30.09R Wrightstown CLEAR 68 53 58 S7 30.08R Toms River NOT AVBL Belmar CLEAR 68 56 65 S5 30.10R $$ PAZ047>061-062-071-140200- Eastern Pennsylvania CITY SKY/WX TMP DP RH WIND PRES REMARKS Philadelphia PTCLDY 73 55 53 SE10 30.07R Allentown CLEAR 70 45 40 CALM 30.06S Scranton CLEAR 68 48 48 E5 30.08R $$ CTZ002-004>006-009-010-012-RIZ004-006-007-MAZ004-011-015-140200- Southern New England In CT CITY SKY/WX TMP DP RH WIND PRES REMARKS Bradley Intl PTCLDY 66 54 65 NW5 30.07R Hartford PTCLDY 73 51 46 N5 30.06R Danbury MOCLDY 65 52 62 CALM 30.10R Wtrbury/Oxford CLEAR 63 51 65 CALM 30.10R Norwalk Harbor NOT AVBL Bridgeport MOCLDY 73 54 51 CALM 30.07R Meriden PTCLDY 65 53 65 CALM 30.07R New Haven CLOUDY 73 55 53 CALM 30.08R Chester FAIR 64 52 63 CALM 30.08R Groton CLEAR 67 54 63 NW3 30.06R Willimantic CLOUDY 65 56 72 CALM 30.07R In RI CITY SKY/WX TMP DP RH WIND PRES REMARKS Providence PTCLDY 68 57 68 CALM 30.07R Block Island MOCLDY 68 57 68 SW3 30.07R Westerly PTCLDY 66 58 75 CALM 30.06R In MA CITY SKY/WX TMP DP RH WIND PRES REMARKS Boston PTCLDY 65 56 72 S3 30.06S Worcester MOCLDY 67 51 56 NW6 30.09R Westfield PTCLDY 64 53 67 CALM 30.07R Provincetown NOT AVBL Nantucket CLEAR 65 62 90 CALM 30.05R $$ ANZ330-335-338-340-345-350-353-355-140200- Coastal Marine Observations STATION/POSITION TIME SKY/WX TEMP WIND PRES VSBY WAVE AIR SEA DIR/SP/G HT/PER (UTC) (F) (DEG/KT/KT) (MB) (MI) (FT/S) NY Harb Entrance 0050 73 170/ 8/ 10 1017.4 2/ 5 20 S Fire Island 0040 74 1017.7 Great South Bay 0030 73 220/ 8/ 12 N/A 23 SSW Montauk P 0050 72 270/ 10/ 12 1018.0 2/ 8 15 E Barnegat Li 0026 76 N/A 3/ 5 Hudson Canyon 0050 72 79 310/ 4/ 6 1018.1 3/ 5 Kings Point 0030 73 74 120/ 3/ 5 1018.2 Execution Rocks 0045 73 160/ 6/ 14 N/A Western LI Sound 0030 76 150/ 4/ 6 N/A Central LI Sound NOT AVBL Robbins Reef 0024 76 120/ 9/ 10 1017.8 $$ >>>>>>>>>>>>>>>>>>>>>>>>>>>> KEY <<<<<<<<<<<<<<<<<<<<<<<<<<< > < > SKY/WX - Sky Condition/Present Weather < > TMP - Temperature in Fahrenheit < > DP - Dew Point in Fahrenheit < > RH - Relative Humidity in Percent < > WIND - Direction (from) and Speed in MPH < > PRES - Mean Sea Level Pressure (inches of Hg) < > WCI - Wind Chill Index < > VSB - Visibility in Miles < > HX - Heat Index < > TC - Temperature in Celsius < > VRB - Variable Wind Direction < > < >>>>>>>>>>>>>>>>>>>>>>>>>>>> KEY <<<<<<<<<<<<<<<<<<<<<<<<<<<
Office: BUF ASUS61 KBUF 140011 RTPBUF MAX/MIN TEMPERATURE AND PRECIPITATION TABLE FOR WESTERN NY AND THE EASTERN LAKE ONTARIO REGION NATIONAL WEATHER SERVICE BUFFALO, NY 811 PM EDT Sat Aug 13 2022 Values represent: High temperature over the last 18 hours Low temperature over the last 18 hours Precipitation over the last 24 hours .BR BUF 0813 ES DH19/TAIRZS/TAIRZI/PPDRZZ/SFDRZZ/SDIRZZ : : Official Climate Stations : Max Min 24 HR Snow Snow : Location Temp Temp Precip Fall Depth BUF :Buffalo Airport : 80 / 52 / 0.00 / 0.0 / 0 ROC :Rochester Airport : 80 / 50 / 0.00 / 0.0 / 0 ART :Watertown Airport : 79 / 43 / 0.00 / / : : Unofficial Supplemental Sites : IAG :Niagara Falls Airport : 80 / 52 / 0.00 / / DKK :Dunkirk Airport : 78 / 50 / 0.00 / / ELZ :Wellsville Airport : 78 / 46 / 0.00 / / DSV :Dansville Airport : 82 / 49 / 0.00 / / FZY :Oswego Airport : 77 / 48 / T / / GTB :Fort Drum : 78 / 47 / 0.00 / / .END These data are preliminary and have not undergone final quality control by the National Centers for Environmental Information (formerly National Climatic Data Center - NCDC). Therefore... these data are subject to revision. Final and certified climate data can be accessed at www.ncdc.noaa.gov. $$
Office: BOX ASUS41 KBOX 140110 RWRBOX REGIONAL WEATHER ROUNDUP NATIONAL WEATHER SERVICE BOSTON/NORTON MA 900 PM EDT SAT AUG 13 2022 NOTE: "FAIR" INDICATES FEW OR NO CLOUDS BELOW 12,000 FEET WITH NO SIGNIFICANT WEATHER AND/OR OBSTRUCTIONS TO VISIBILITY. MAZALL-140200- EASTERN MASSACHUSETTS CITY SKY/WX TMP DP RH WIND PRES REMARKS BOSTON PTCLDY 65 56 72 S3 30.06S BEVERLY CLEAR 63 56 78 CALM 30.05S LAWRENCE CLEAR 67 55 65 CALM 30.08R BEDFORD MOCLDY 68 55 63 S3 30.05R BLUE HILL NOT AVBL NORWOOD MOCLDY 65 54 67 CALM 30.06R MARSHFIELD CLEAR 61 57 88 CALM 30.05S PLYMOUTH CLEAR 63 57 81 CALM 30.06S TAUNTON N/A N/A N/A N/A MISG 30.06R NEW BEDFORD MOCLDY 65 58 78 CALM 30.06R $$ MAZALL-140200- CAPE COD AND THE ISLANDS CITY SKY/WX TMP DP RH WIND PRES REMARKS FALMOUTH CLEAR 63 61 94 CALM 30.05S HYANNIS PTCLDY 65 61 87 N5 30.04R CHATHAM CLEAR 66 61 84 CALM 30.05R NANTUCKET CLEAR 65 62 90 CALM 30.05R MARTHAS VNYRD CLEAR 60 56 86 SW3 30.06R $$ MAZALL-140200- CENTRAL AND WESTERN MASSACHUSETTS CITY SKY/WX TMP DP RH WIND PRES REMARKS WORCESTER MOCLDY 67 51 56 NW6 30.09R FITCHBURG PTCLDY 66 50 56 N6 30.07R ORANGE CLOUDY 66 54 65 CALM 30.09R SPRINGFIELD PTCLDY 59 54 83 NE5 30.05R WESTFIELD PTCLDY 64 53 67 CALM 30.07R NORTH ADAMS CLEAR 59 54 83 CALM 30.10R PITTSFIELD CLEAR 57 52 83 CALM 30.10R $$ RIZALL-140200- RHODE ISLAND CITY SKY/WX TMP DP RH WIND PRES REMARKS PROVIDENCE PTCLDY 68 57 68 CALM 30.07R NEWPORT PTCLDY 64 56 75 CALM 30.06R BLOCK ISLAND MOCLDY 68 57 68 SW3 30.07R SMITHFIELD PTCLDY 61 56 83 SE5 30.08R WESTERLY PTCLDY 66 58 75 CALM 30.06R $$ CTZALL-140200- CONNECTICUT CITY SKY/WX TMP DP RH WIND PRES REMARKS BRADLEY INTL PTCLDY 66 54 65 NW5 30.07R HARTFORD PTCLDY 73 51 46 N5 30.06R BRIDGEPORT MOCLDY 73 54 51 CALM 30.07R DANBURY MOCLDY 65 52 62 CALM 30.10R GROTON CLEAR 67 54 63 NW3 30.06R NEW HAVEN CLOUDY 73 55 53 CALM 30.08R CHESTER FAIR 64 52 63 CALM 30.08R MERIDEN PTCLDY 65 53 65 CALM 30.07R WILLIMANTIC CLOUDY 65 56 72 CALM 30.07R OXFORD CLEAR 63 51 65 CALM 30.10R $$ MEZ002-015-021-024-NHZ003-005-008-011-012-014-VTZ005-008-140200- NORTHERN NEW ENGLAND CITY SKY/WX TMP DP RH WIND PRES REMARKS PORTLAND ME MOCLDY 67 55 65 CALM 30.05R BANGOR ME CLOUDY 70 57 63 N5 30.03R CONCORD NH CLEAR 66 53 63 NW5 30.06S MANCHESTER NH MOCLDY 73 51 46 NW8 30.05R NASHUA NH MOCLDY 70 53 54 NW6 30.07R PORTSMOUTH NH MOCLDY 63 53 70 CALM 30.05R JAFFREY NH MOCLDY 65 53 65 CALM 30.10R KEENE NH CLOUDY 63 58 83 CALM N/A BURLINGTON VT PTCLDY 68 50 52 CALM 30.09R MT. WASHINGTON MOCLDY 45 39 81 N8 N/A $$ NYZ052-076-140200- EASTERN NEW YORK CITY SKY/WX TMP DP RH WIND PRES REMARKS ALBANY MOCLDY 68 53 58 CALM 30.08R NEW YORK CITY PTCLDY 76 47 35 E7 30.06R $$ ANZALL-140200- MARINE OBSERVATIONS STATION/POSITION TIME TEMP WIND PRES VSBY WAVE AIR SEA DIR/SP/G HT/PER (UTC) (F) (DEG/KT/KT) (MB) (MI) (FT/S) BOSTON BUOY NOT AVBL BUZZARDS BAY NOT AVBL NANTUCKET SOUND NOT AVBL MASS BAY-STELLWA NOT AVBL ISLE OF SHOALS NOT AVBL S OF BLOCK IS NOT AVBL $$ ......................KEY......................... SKY/WX - SKY CONDITION/PRESENT WEATHER TMP - TEMPERATURE IN FAHRENHEIT DWPT - DEWPOINT IN FAHRENHEIT RH - RELATIVE HUMIDITY IN PERCENT WIND - DIRECTION AND SPEED IN MPH PRES - MEAN SEA LEVEL PRESSURE IN INCHES OF HG WCI - WIND CHILL INDEX VSB - VISIBILITY IN MILES HX - HEAT INDEX TC - TEMPERATURE IN CELSIUS VRB - VARIABLE WIND DIRECTION N/A - NOT AVAILABLE
Office: GYX ASUS41 KGYX 140105 RWRGYX WEATHER ROUNDUP FOR MAINE AND NEW HAMPSHIRE NATIONAL WEATHER SERVICE GRAY ME 900 PM EDT SAT AUG 13 2022 MEZ002-005-006-010-012-015-018-020-021-024-026-027-029-140200- MAINE CITY SKY/WX TMP DP RH WIND PRES REMARKS PORTLAND MOCLDY 67 55 65 CALM 30.05R SANFORD PTCLDY 59 56 89 CALM 30.07R BAR HARBOR CLEAR 66 59 78 CALM 30.03R WISCASSET CLEAR 65 59 81 CALM 30.05R ROCKLAND CLEAR 66 59 78 W3 30.03R FRYEBURG MOCLDY 63 55 75 CALM 30.07S LEWISTONAUBURN CLEAR 66 59 78 CALM 30.06R AUGUSTA CLEAR 70 57 63 NW3 30.05S WATERVILLE CLEAR 66 58 75 N3 30.02S BANGOR CLOUDY 70 57 63 N5 30.03R GREENVILLE N/A 62 55 77 N5 30.05S MILLINOCKET MOCLDY 66 61 84 W3 30.04S HOULTON MOCLDY 61 58 90 CALM 30.02S PRESQUE ISLE MOCLDY 63 61 93 CALM 30.05R FRENCHVILLE MOCLDY 63 57 81 NW5 30.05S CARIBOU MOCLDY 65 56 72 NW3 30.03R $$ NHZ002-005-008-009-011-012-014-140200- NEW HAMPSHIRE CITY SKY/WX TMP DP RH WIND PRES REMARKS PORTSMOUTH MOCLDY 63 53 70 CALM 30.05R ROCHESTER MOCLDY 68 54 60 CALM 30.06R NASHUA MOCLDY 70 53 54 NW6 30.07R MANCHESTER MOCLDY 73 51 46 NW8 30.05R CONCORD CLEAR 66 53 63 NW5 30.06S LACONIA N/A 63 58 83 CALM 30.07S BERLIN CLOUDY 62 57 83 CALM 30.10R WHITEFIELD CLOUDY 61 58 90 CALM 30.10S JAFFREY MOCLDY 65 53 65 CALM 30.10R KEENE CLOUDY 63 58 83 CALM N/A LEBANON MOCLDY 61 54 77 CALM 30.09R MT WASHINGTON MOCLDY 45 39 81 N8 N/A $$ VTZ005-007-008-140200- VERMONT CITY SKY/WX TMP DP RH WIND PRES REMARKS MONTPELIER PTCLDY 59 52 77 S5 30.15R BURLINGTON PTCLDY 68 50 52 CALM 30.09R $$ MAZ007-012-024-CTZ003-RIZ002-NYZ038-NYZ072-140200- SOUTHERN NEW ENGLAND AND NY CITY SKY/WX TMP DP RH WIND PRES REMARKS BOSTON PTCLDY 65 56 72 S3 30.06S WORCESTER MOCLDY 67 51 56 NW6 30.09R NANTUCKET CLEAR 65 62 90 CALM 30.05R PROVIDENCE PTCLDY 68 57 68 CALM 30.07R HARTFORD PTCLDY 66 54 65 NW5 30.07R ALBANY MOCLDY 68 53 58 CALM 30.08R NEW YORK CITY PTCLDY 76 47 35 E7 30.06R $$ ANZ081-ANZ082-ANZ150-NHZ014-MEZ023>029-140200- COASTAL MARINE OBSERVATIONS STATION/POSITION TIME TEMP WIND PRES WAVE AIR SEA DIR/SP/G HT/PER (UTC) (F) (DEG/KT/KT) (MB) (FT/S) MOUNT DESERT ROC 0000 63 270/ 9/ 9 1016.1R MATINICUS ROCK 0000 65 260/ 14/ 14 1016.8F ISLE OF SHOALS 0000 66 210/ 3/ 4 1017.1R JEFFREYS LEDGE 0026 66 N/A 2/ 9 CASHES LEDGE BUO 0050 70 71 320/ 6/ 6 1016.6R 2/ 8 GEORGES BANK BUO 0040 69 1014.5R $$ .............KEY.............. WCI - WIND CHILL TC - TEMPERATURE IN CELSIUS VSB - VISIBILITY IN MILES HX - HEAT INDEX FAIR- INDICATES FEW OR NO CLOUDS BELOW 12,000 FT, WITH NO SIGNIFICANT WEATHER AND/OR OBSTRUCTIONS TO VISIBILITY. ASUS41 KGYX 140110 RWRGYX WEATHER ROUNDUP FOR MAINE AND NEW HAMPSHIRE NATIONAL WEATHER SERVICE GRAY ME 900 PM EDT SAT AUG 13 2022 MEZ002-005-006-010-012-015-018-020-021-024-026-027-029-140200- MAINE CITY SKY/WX TMP DP RH WIND PRES REMARKS PORTLAND MOCLDY 67 55 65 CALM 30.05R SANFORD PTCLDY 59 56 89 CALM 30.07R BAR HARBOR CLOUDY 66 59 78 CALM 30.03R WISCASSET MOCLDY 65 59 81 CALM 30.05R ROCKLAND MOCLDY 66 59 78 W3 30.03R FRYEBURG MOCLDY 63 55 75 CALM 30.07S LEWISTONAUBURN MOCLDY 66 59 78 CALM 30.06R AUGUSTA CLOUDY 70 57 63 NW3 30.05S WATERVILLE CLOUDY 66 58 75 N3 30.02S BANGOR CLOUDY 70 57 63 N5 30.03R GREENVILLE N/A 62 55 77 N5 30.05S MILLINOCKET CLOUDY 66 61 84 W3 30.04S HOULTON MOCLDY 61 58 90 CALM 30.02S PRESQUE ISLE MOCLDY 63 61 93 CALM 30.05R FRENCHVILLE MOCLDY 63 57 81 NW5 30.05S CARIBOU MOCLDY 65 56 72 NW3 30.03R $$ NHZ002-005-008-009-011-012-014-140200- NEW HAMPSHIRE CITY SKY/WX TMP DP RH WIND PRES REMARKS PORTSMOUTH MOCLDY 63 53 70 CALM 30.05R ROCHESTER MOCLDY 68 54 60 CALM 30.06R NASHUA MOCLDY 70 53 54 NW6 30.07R MANCHESTER MOCLDY 73 51 46 NW8 30.05R CONCORD CLEAR 66 53 63 NW5 30.06S LACONIA N/A 63 58 83 CALM 30.07S BERLIN CLOUDY 62 57 83 CALM 30.10R WHITEFIELD CLOUDY 61 58 90 CALM 30.10S JAFFREY MOCLDY 65 53 65 CALM 30.10R KEENE CLOUDY 63 58 83 CALM N/A LEBANON MOCLDY 61 54 77 CALM 30.09R MT WASHINGTON MOCLDY 45 39 81 N8 N/A $$ VTZ005-007-008-140200- VERMONT CITY SKY/WX TMP DP RH WIND PRES REMARKS MONTPELIER PTCLDY 59 52 77 S5 30.15R BURLINGTON PTCLDY 68 50 52 CALM 30.09R $$ MAZ007-012-024-CTZ003-RIZ002-NYZ038-NYZ072-140200- SOUTHERN NEW ENGLAND AND NY CITY SKY/WX TMP DP RH WIND PRES REMARKS BOSTON PTCLDY 65 56 72 S3 30.06S WORCESTER MOCLDY 67 51 56 NW6 30.09R NANTUCKET CLEAR 65 62 90 CALM 30.05R PROVIDENCE PTCLDY 68 57 68 CALM 30.07R HARTFORD PTCLDY 66 54 65 NW5 30.07R ALBANY MOCLDY 68 53 58 CALM 30.08R NEW YORK CITY PTCLDY 76 47 35 E7 30.06R $$ ANZ081-ANZ082-ANZ150-NHZ014-MEZ023>029-140200- COASTAL MARINE OBSERVATIONS STATION/POSITION TIME TEMP WIND PRES WAVE AIR SEA DIR/SP/G HT/PER (UTC) (F) (DEG/KT/KT) (MB) (FT/S) MOUNT DESERT ROC 0100 65 280/ 11/ 11 1016.5R MATINICUS ROCK 0000 65 260/ 14/ 14 1016.8F ISLE OF SHOALS 0000 66 210/ 3/ 4 1017.1R JEFFREYS LEDGE 0056 67 N/A 2/ 9 CASHES LEDGE BUO 0050 70 71 320/ 6/ 6 1016.6R 2/ 8 GEORGES BANK BUO 0050 69 1014.6R $$ .............KEY.............. WCI - WIND CHILL TC - TEMPERATURE IN CELSIUS VSB - VISIBILITY IN MILES HX - HEAT INDEX FAIR- INDICATES FEW OR NO CLOUDS BELOW 12,000 FT, WITH NO SIGNIFICANT WEATHER AND/OR OBSTRUCTIONS TO VISIBILITY.
Office: PHI ASUS41 KPHI 140114 RWRPHI REGIONAL WEATHER ROUNDUP NATIONAL WEATHER SERVICE MOUNT HOLLY NJ 900 PM EDT SAT AUG 13 2022 NOTE: "FAIR" INDICATES FEW OR NO CLOUDS BELOW 12,000 FEET WITH NO SIGNIFICANT WEATHER AND/OR OBSTRUCTIONS TO VISIBILITY. * = STATION DOES NOT REPORT PRECIPITATION (E.G. RAIN, SNOW, ETC.) OR FOG. NJZ015>026-140200- SOUTHERN NEW JERSEY CITY SKY/WX TMP DP RH WIND PRES REMARKS POMONA CLEAR 66 56 70 SE5 30.09R WILDWOOD* CLEAR 68 60 75 SE3 30.09S MILLVILLE CLEAR 67 56 67 SE5 30.09R WRIGHTSTOWN CLEAR 68 53 58 S7 30.08R MOUNT HOLLY CLEAR 71 54 54 SE7 30.08R TRENTON CLEAR 71 53 52 S12 30.07R $$ NJZ001>014-140200- NORTHERN NEW JERSEY CITY SKY/WX TMP DP RH WIND PRES REMARKS SUSSEX MOCLDY 66 53 63 CALM 30.08R ANDOVER* N/A 66 53 63 CALM 30.08R MORRISTOWN PTCLDY 64 54 68 CALM 30.07R NEWARK PTCLDY 75 51 43 S7 30.06R TETERBORO PTCLDY 73 50 44 SE3 30.06R CALDWELL MOCLDY 72 47 40 SE3 30.07R SOMERVILLE CLEAR 66 52 60 S3 30.05R ALLAIRE* CLEAR 68 56 65 S5 30.10R $$ PAZ043-044-047-054-055-060>062-066>071-140200- EASTERN PENNSYLVANIA CITY SKY/WX TMP DP RH WIND PRES REMARKS PHILADELPHIA PTCLDY 73 55 53 SE10 30.07R NORTH PHILA CLEAR 73 53 49 S8 30.09R BLUE BELL* CLEAR 62 56 80 CALM 30.08R DOYLESTOWN CLEAR 68 49 50 CALM 30.07R QUAKERTOWN* CLEAR 66 52 59 CALM 30.08R PERKASIE* FAIR 63 52 67 CALM 30.09R POTTSTOWN CLEAR 67 51 56 CALM 30.09R LANCASTER PTCLDY 68 52 56 E6 30.07R COATESVILLE PTCLDY 70 48 46 CALM 30.10R WEST CHESTER FAIR 72 50 46 CALM 30.08R READING PTCLDY 74 48 39 CALM 30.06R ALLENTOWN CLEAR 70 45 40 CALM 30.06S QN CITY/ALNTWN FAIR 72 46 40 CALM 30.08R MOUNT POCONO CLEAR 57 48 72 CALM 30.12S HAZLETON CLEAR 59 46 63 CALM 30.14S LEHIGHTON FAIR 59 48 67 CALM 30.08R WILKES BARRE CLEAR 68 48 48 E5 30.08R $$ DEZALL-MDZ008-012-015-019-020-140200- DELAWARE AND EASTERN MARYLAND CITY SKY/WX TMP DP RH WIND PRES REMARKS WILMINGTON PTCLDY 77 46 33 CALM 30.07S DOVER PTCLDY 70 52 51 SW5 30.06R CHESWOLD CLEAR 66 55 68 CALM 30.07R GEORGETOWN CLEAR 68 57 68 S6 30.08S EASTON CLEAR 68 59 73 CALM 30.12S PATUXENT MOCLDY 66 61 84 S3 30.08R OCEAN CITY NOT AVBL WALLOPS ISLAND PTCLDY 68 59 73 CALM 30.09S SALISBURY PTCLDY 69 56 62 SE3 30.08S $$ PAZ001-021-NYZ056-072-MDZ011-DCZ001-140200- OTHER NEARBY LOCATIONS CITY SKY/WX TMP DP RH WIND PRES REMARKS HARRISBURG MOCLDY 76 48 37 CALM 30.05S STATE COLLEGE MOCLDY 70 45 40 CALM 30.09S WILLIAMSPORT PTCLDY 71 46 40 N3 30.04S BINGHAMTON CLEAR 64 46 52 NE5 30.11S NEW YORK CITY CLEAR 73 48 41 NE3 30.10R BALTIMORE MOCLDY 73 55 53 S7 30.07R WASHINGTON DC MOCLDY 77 53 43 SE3 30.08R $$